[[{"header":{"parameterUnit":"m.s-1","parameterCategory":1,"la1":30.2991,"la2":30.254,"lo1":-89.0895,"lo2":-89.0444,"dy":0.0017,"dx":0.0017,"nx":28,"ny":28,"refTime":"2024-06-10T03:00:00:Z","depth":0,"parameterNumber":2,"parameterNumberName":"U-component_of_WINDS"},"data":[0,0,0,0,0,0,0,0,0,0,0,0,0,0,0,0,0,0,0,0,0,0,0,0,0,0,0,0,0,0,0,0,0,0,0,0,0,0,0,0,0,0,0,0,0,0,0,0,0,0,0,0,0,0,0,0,0,0,3.4584,3.4586,0,3.4764,3.4766,3.4768,3.4756,3.4754,3.4751,3.4748,3.4936,3.4943,3.4951,0,0,0,0,0,0,0,0,0,0,0,0,0,3.4231,3.4238,3.4584,3.4586,3.4588,3.4764,3.4766,3.4769,3.4757,3.4753,3.475,3.4747,3.4934,3.4943,3.4951,0,0,0,0,0,0,0,0,0,0,0,0,0,3.4395,3.424,3.4583,3.4603,3.4607,3.4763,3.4766,3.4769,3.4757,3.4753,3.4749,3.4746,3.4931,3.4942,3.4953,3.5102,0,0,3.4987,3.4992,0,0,0,0,0,0,0,0,3.4386,3.4408,3.4598,3.4602,3.4607,3.4733,3.4711,3.4881,3.4758,3.47,3.4748,3.4744,3.4872,3.4888,3.4931,3.5111,3.5119,3.4988,3.4995,3.5,3.5003,0,0,0,0,0,0,0,3.4375,3.4401,3.4655,3.4601,3.4606,3.4604,3.4623,3.4743,3.4807,3.4705,3.4705,3.4726,3.4874,3.492,3.4935,3.5121,3.4988,3.4998,3.5005,3.5009,3.5432,3.5436,0,0,0,0,0,0,3.4358,3.4391,3.4649,3.4661,3.4484,3.4614,3.4635,3.4697,3.4805,3.4818,3.4729,3.4725,3.4903,3.4922,3.4941,3.5123,3.5,3.501,3.5016,3.5428,3.5433,3.5438,0,0,0,0,0,0,3.4351,3.4382,3.4642,3.4526,3.4559,3.4624,3.4694,3.4703,3.4749,3.4823,3.4835,3.4765,3.49,3.4926,3.5062,3.5129,3.5015,3.5025,3.5422,3.5429,3.5436,3.5486,0,0,0,0,0,0,3.4341,3.4379,3.4436,3.4527,3.4565,3.4759,3.4698,3.4709,3.4768,3.4763,3.486,3.4872,3.4899,3.5045,3.5073,3.5142,3.5034,3.5417,3.5425,3.5433,3.5479,3.5494,3.5507,0,0,0,0,0,3.4328,3.4444,3.4439,3.447,3.4637,3.4763,3.4784,3.4813,3.4773,3.4831,3.4879,3.4869,3.5117,3.5059,3.509,3.5164,3.5413,3.5423,3.5433,3.5473,3.5491,3.5506,0,0,0,0,0,0,3.436,3.4456,3.4452,3.46,3.4673,3.476,3.4834,3.4831,3.4918,3.4911,3.4943,3.4965,3.5101,3.5147,3.508,3.5314,3.526,3.5277,3.5279,3.5297,3.5311,3.5297,3.5043,0,0,0,0,0,3.4384,3.4477,3.4556,3.468,3.4716,3.4769,3.4825,3.484,3.4918,3.4949,3.5007,3.5083,3.5178,3.524,3.5332,3.5485,3.5506,3.5552,3.5565,3.5577,3.5591,3.5675,3.5696,3.5471,3.5471,3.5471,0,0,3.4435,3.4499,3.4556,3.4688,3.4746,3.4842,3.4795,3.4899,3.4971,3.4965,3.5096,3.5141,3.5229,3.5374,3.5441,3.5416,3.5657,3.559,3.5598,3.5606,3.5687,3.5708,3.5727,3.5478,3.5477,3.5476,0,0,3.4577,3.4635,3.4743,3.4803,3.4891,3.4925,3.4951,3.5039,3.5069,3.5201,3.5198,3.5284,3.5448,3.551,3.5563,3.5727,3.5721,3.5756,3.5829,3.591,3.5928,3.5944,3.6002,3.6023,3.577,3.577,3.577,0,3.463,3.4773,3.48,3.4904,3.4962,3.496,3.507,3.5127,3.5241,3.5281,3.5251,3.5456,3.5515,3.5674,3.5713,3.5757,3.5788,3.5745,3.5923,3.5939,3.5955,3.601,3.6032,3.5774,3.5774,3.5773,3.5773,0,3.4833,3.4933,3.501,3.5119,3.5186,3.5293,3.5336,3.54,3.541,3.5447,3.5582,3.5652,3.5757,3.5796,3.5807,3.5957,3.5939,3.5916,3.5862,3.5979,3.6032,3.6054,3.5779,3.5778,3.5777,3.5776,0,0,3.5001,3.5122,3.515,3.5199,3.5296,3.5374,3.5481,3.5583,3.5637,3.5717,3.5807,3.5945,3.5924,3.5984,3.6002,3.6073,3.6198,3.6041,3.6044,3.6068,3.6367,3.6383,3.6407,3.6194,3.6198,3.6202,3.6359,0,3.5152,3.534,3.5367,3.5533,3.5625,3.5624,3.5717,3.5787,3.5825,3.5909,3.5951,3.6048,3.6013,3.6049,3.612,3.6168,3.6258,3.6157,3.6279,3.6283,3.6256,3.6435,3.6453,3.6598,3.638,3.6384,3.6386,0,3.5354,3.5437,3.5612,3.5695,3.5735,3.5818,3.5913,3.5994,3.6073,3.6096,3.6162,3.6171,3.6282,3.6223,3.6377,3.6307,3.6359,3.639,3.6396,3.6408,3.6341,3.6452,3.6645,3.6667,3.6419,3.6417,3.6414,0,3.5458,3.5613,3.5738,3.578,3.5881,3.5939,3.5984,3.6059,3.6119,3.6202,3.6241,3.6337,3.6389,3.6464,3.6498,3.6452,3.6649,3.6594,3.6671,3.667,3.6713,3.671,3.6917,3.6747,3.6746,3.6746,3.6746,0,3.5624,3.5731,3.5786,3.5862,3.5982,3.6012,3.613,3.6173,3.624,3.6325,3.6331,3.6411,3.6452,3.6538,3.6566,3.6689,3.6713,3.6734,3.674,3.6734,3.6731,3.6768,3.6758,3.6752,3.6751,3.6749,3.6748,0,3.576,3.5801,3.5937,3.602,3.6044,3.6129,3.6201,3.6275,3.6312,3.642,3.6447,3.6505,3.6607,3.6649,3.6774,3.6793,3.6933,3.6932,3.6906,3.6908,3.6983,3.6975,3.722,3.7254,3.7062,3.7064,3.7066,0,3.5863,3.5945,3.6037,3.6094,3.614,3.6232,3.6292,3.6325,3.6388,3.6483,3.6547,3.6648,3.6731,3.6894,3.6948,3.7044,3.7044,3.7124,3.7059,3.7049,3.7045,3.7039,3.7047,3.7136,3.7138,3.7139,3.7141,0,3.6041,3.6057,3.6143,3.6236,3.6307,3.6383,3.6456,3.6502,3.6546,3.6616,3.672,3.6784,3.6911,3.7012,3.7111,3.7158,3.7157,3.716,3.7183,3.7177,3.7158,3.7169,3.6938,3.7155,3.7153,3.7152,3.7151,3.7151,3.6164,3.6236,3.6312,3.6408,3.6466,3.6534,3.6608,3.6653,3.6739,3.6844,3.6859,3.697,3.7046,3.7179,3.723,3.7317,3.7297,3.733,3.7338,3.7346,3.735,3.7144,3.7335,3.7335,3.7335,3.7334,3.7334,0,3.6342,3.639,3.6478,3.6579,3.6654,3.6645,3.6726,3.6789,3.6886,3.6958,3.7038,3.7157,3.7255,3.7316,3.7414,3.7472,3.7474,3.7497,3.7493,3.7503,3.7364,3.7333,3.7494,3.7494,3.7493,3.7493,3.7493,3.7493,3.6443,3.6565,3.659,3.6741,3.6789,3.6896,3.6943,3.7006,3.7062,3.7194,3.7275,3.7313,3.7381,3.7484,3.7573,3.7588,3.7624,3.7648,3.7662,3.753,3.7514,3.7498,3.747,3.7656,3.7656,3.7795,3.7796,3.7797]},{"header":{"parameterUnit":"m.s-1","parameterCategory":1,"la1":30.2991,"la2":30.254,"lo1":-89.0895,"lo2":-89.0444,"dy":0.0017,"dx":0.0017,"nx":28,"ny":28,"refTime":"2024-06-10T03:00:00:Z","depth":0,"parameterNumber":3,"parameterNumberName":"V-component_of_WINDS"},"data":[0,0,0,0,0,0,0,0,0,0,0,0,0,0,0,0,0,0,0,0,0,0,0,0,0,0,0,0,0,0,0,0,0,0,0,0,0,0,0,0,0,0,0,0,0,0,0,0,0,0,0,0,0,0,0,0,0,0,0.3787,0.3787,0,0.3782,0.3782,0.3782,0.3755,0.3754,0.3754,0.3753,0.3749,0.375,0.375,0,0,0,0,0,0,0,0,0,0,0,0,0,0.3773,0.3774,0.3787,0.3787,0.3787,0.3782,0.3782,0.3782,0.3755,0.3754,0.3754,0.3753,0.3749,0.375,0.3751,0,0,0,0,0,0,0,0,0,0,0,0,0,0.3775,0.3774,0.3787,0.3773,0.3772,0.3782,0.3782,0.3782,0.3755,0.3754,0.3753,0.3753,0.3749,0.375,0.3751,0.3775,0,0,0.3753,0.3753,0,0,0,0,0,0,0,0,0.3775,0.3776,0.3775,0.3774,0.3772,0.3768,0.3776,0.378,0.3756,0.3762,0.3753,0.3752,0.3757,0.3757,0.3758,0.3775,0.3775,0.3753,0.3753,0.3754,0.3754,0,0,0,0,0,0,0,0.3775,0.3776,0.3785,0.3775,0.3773,0.3767,0.3766,0.3777,0.3765,0.3761,0.3759,0.3759,0.3756,0.3757,0.3758,0.3775,0.3753,0.3754,0.3754,0.3754,0.381,0.3811,0,0,0,0,0,0,0.3777,0.3776,0.3785,0.3785,0.3771,0.3768,0.3767,0.3771,0.3764,0.3763,0.376,0.3757,0.3756,0.3757,0.3757,0.3785,0.3754,0.3755,0.3755,0.3809,0.381,0.3812,0,0,0,0,0,0,0.3776,0.3778,0.3786,0.378,0.378,0.3769,0.3773,0.3771,0.3773,0.3763,0.3761,0.3763,0.3756,0.3756,0.3771,0.3785,0.3755,0.3756,0.3808,0.381,0.3811,0.3841,0,0,0,0,0,0,0.3776,0.3778,0.3787,0.378,0.3781,0.3799,0.3774,0.3772,0.3774,0.3771,0.3766,0.3765,0.3755,0.377,0.3771,0.3785,0.3756,0.3807,0.3809,0.381,0.3839,0.3843,0.3847,0,0,0,0,0,0.3776,0.3796,0.3788,0.3789,0.3792,0.38,0.38,0.3788,0.3775,0.3784,0.3778,0.3765,0.3783,0.3771,0.3773,0.3787,0.3806,0.3808,0.381,0.3837,0.3843,0.3847,0,0,0,0,0,0,0.3806,0.3795,0.3785,0.3804,0.3803,0.3795,0.3806,0.3795,0.3797,0.3795,0.378,0.3779,0.3795,0.3793,0.378,0.381,0.3792,0.3795,0.3811,0.3817,0.3821,0.3822,0.3757,0,0,0,0,0,0.3814,0.3821,0.3812,0.3829,0.3829,0.3818,0.3821,0.3811,0.381,0.3809,0.3804,0.3803,0.3808,0.3812,0.3817,0.3838,0.3836,0.3849,0.3853,0.3857,0.3859,0.387,0.3875,0.3819,0.3819,0.3819,0,0,0.3832,0.3827,0.3833,0.3835,0.3833,0.384,0.3817,0.3827,0.3832,0.3811,0.3824,0.382,0.3818,0.3835,0.3843,0.3834,0.3874,0.3859,0.3862,0.3863,0.3873,0.3878,0.3883,0.3821,0.382,0.382,0,0,0.3869,0.3866,0.388,0.3878,0.3875,0.3867,0.3871,0.3864,0.3861,0.3873,0.3857,0.3863,0.3873,0.3872,0.3873,0.3908,0.3896,0.391,0.3933,0.3943,0.3948,0.3952,0.3964,0.3969,0.3913,0.3913,0.3913,0,0.3893,0.3903,0.3889,0.3899,0.39,0.388,0.3894,0.3893,0.3892,0.3893,0.3883,0.3893,0.3891,0.3908,0.3916,0.3917,0.3921,0.3911,0.3948,0.3952,0.3955,0.3967,0.3972,0.3914,0.3914,0.3914,0.3914,0,0.3932,0.3939,0.3951,0.3949,0.3952,0.3964,0.3951,0.3956,0.3946,0.3939,0.3952,0.3948,0.3951,0.3954,0.3945,0.3969,0.3963,0.3951,0.3932,0.3963,0.3973,0.3978,0.3917,0.3916,0.3916,0.3915,0,0,0.3989,0.3978,0.3983,0.3981,0.3976,0.3981,0.3992,0.3994,0.3998,0.3998,0.4006,0.4014,0.4002,0.4003,0.3993,0.4003,0.403,0.3989,0.3988,0.3997,0.4057,0.4067,0.4072,0.4022,0.4023,0.4023,0.4057,0,0.4024,0.4042,0.4029,0.4049,0.4055,0.4036,0.4045,0.4043,0.4036,0.4041,0.4034,0.404,0.4024,0.4024,0.4032,0.4025,0.4042,0.4023,0.403,0.4031,0.4032,0.4078,0.4089,0.4121,0.4061,0.4062,0.4062,0,0.4068,0.4069,0.4089,0.4081,0.4084,0.4092,0.4093,0.4097,0.4094,0.4089,0.4089,0.4077,0.4087,0.4068,0.4082,0.4068,0.4071,0.4068,0.4069,0.4069,0.4049,0.408,0.4131,0.4135,0.4069,0.4068,0.4068,0,0.4107,0.4113,0.4126,0.4126,0.4117,0.4123,0.412,0.4116,0.4118,0.4118,0.4119,0.4121,0.4122,0.4124,0.4112,0.41,0.4127,0.4108,0.4123,0.4124,0.413,0.413,0.4182,0.4131,0.4131,0.4131,0.4131,0,0.4149,0.4162,0.4143,0.4152,0.4166,0.415,0.4165,0.4159,0.4156,0.4162,0.4145,0.4152,0.4136,0.4141,0.4132,0.4144,0.4145,0.4141,0.4139,0.4143,0.4143,0.4144,0.4142,0.4132,0.4132,0.4132,0.4132,0,0.4195,0.4184,0.4196,0.4186,0.4184,0.4195,0.4187,0.4194,0.4186,0.4194,0.4196,0.4183,0.4188,0.4177,0.418,0.4174,0.4191,0.4185,0.4192,0.4191,0.4207,0.4206,0.4262,0.4268,0.4213,0.4214,0.4214,0,0.4223,0.4232,0.4223,0.4226,0.4223,0.4229,0.423,0.4215,0.4217,0.4214,0.4221,0.4224,0.4226,0.4235,0.4226,0.4228,0.4222,0.4242,0.4223,0.4226,0.4223,0.4222,0.4223,0.4246,0.4247,0.4247,0.4248,0,0.4272,0.4265,0.4268,0.4269,0.4271,0.4271,0.4269,0.4273,0.4257,0.426,0.4264,0.4266,0.4268,0.4272,0.4272,0.4269,0.4256,0.4254,0.4257,0.4262,0.4266,0.4264,0.4203,0.4253,0.4252,0.4252,0.4251,0.4251,0.431,0.4317,0.4312,0.4315,0.4312,0.4311,0.4317,0.4309,0.4313,0.4313,0.4304,0.4311,0.4306,0.4305,0.4303,0.4307,0.4298,0.4304,0.4305,0.4307,0.431,0.4265,0.4307,0.4307,0.4307,0.4307,0.4307,0,0.4359,0.4354,0.4357,0.4355,0.4358,0.4344,0.4342,0.4345,0.435,0.4347,0.4349,0.4354,0.4357,0.4348,0.435,0.4355,0.4349,0.4356,0.4355,0.4355,0.4318,0.4314,0.4361,0.4361,0.4361,0.4361,0.4361,0.4361,0.4384,0.4396,0.4388,0.4398,0.4393,0.4399,0.4399,0.4397,0.4395,0.44,0.4403,0.4397,0.4391,0.4392,0.4394,0.4391,0.4393,0.4402,0.4397,0.4363,0.4358,0.4353,0.4349,0.4402,0.4402,0.4434,0.4434,0.4435]}]]